Time,TemperatureF,DewpointF,PressureIn,WindDirection,WindDirectionDegrees,WindSpeedMPH,WindSpeedGustMPH,Humidity,HourlyPrecipIn,Conditions,Clouds,dailyrainin,SoftwareType,DateUTC
2013-02-10 00:11:00,34.4,26.0,30.17,South,190,0.0,0.0,71,0.00,,,0.00,weatherlink.com 1.10,2013-02-10 05:11:00,
2013-02-10 00:27:00,34.3,26.0,30.17,South,191,0.0,0.0,72,0.00,,,0.00,weatherlink.com 1.10,2013-02-10 05:27:00,
2013-02-10 00:41:00,34.3,26.0,30.16,South,190,0.0,1.0,72,0.00,,,0.00,weatherlink.com 1.10,2013-02-10 05:41:00,
2013-02-10 00:56:00,34.5,26.0,30.16,South,190,0.0,0.0,70,0.00,,,0.00,weatherlink.com 1.10,2013-02-10 05:56:00,
2013-02-10 01:11:00,35.1,25.0,30.16,East,94,0.0,1.0,68,0.00,,,0.00,weatherlink.com 1.10,2013-02-10 06:11:00,
2013-02-10 01:26:00,35.9,25.0,30.16,SE,124,1.0,1.0,66,0.00,,,0.00,weatherlink.com 1.10,2013-02-10 06:26:00,
2013-02-10 01:41:00,37.1,25.0,30.15,SE,141,0.0,6.0,61,0.00,,,0.00,weatherlink.com 1.10,2013-02-10 06:41:00,
2013-02-10 01:56:00,37.5,24.0,30.15,ESE,118,3.0,6.0,59,0.00,,,0.00,weatherlink.com 1.10,2013-02-10 06:56:00,
2013-02-10 02:11:00,37.5,24.0,30.15,SSE,156,1.0,4.0,59,0.00,,,0.00,weatherlink.com 1.10,2013-02-10 07:11:00,
2013-02-10 02:26:00,37.6,25.0,30.15,SE,146,0.0,3.0,60,0.00,,,0.00,weatherlink.com 1.10,2013-02-10 07:26:00,
2013-02-10 02:41:00,37.6,25.0,30.13,ESE,108,1.0,3.0,60,0.00,,,0.00,weatherlink.com 1.10,2013-02-10 07:41:00,
2013-02-10 02:56:00,37.6,25.0,30.14,SW,218,0.0,1.0,61,0.00,,,0.00,weatherlink.com 1.10,2013-02-10 07:56:00,
2013-02-10 03:11:00,37.5,25.0,30.13,SW,218,0.0,1.0,62,0.00,,,0.00,weatherlink.com 1.10,2013-02-10 08:11:00,
2013-02-10 03:26:00,37.4,25.0,30.13,WNW,283,0.0,2.0,62,0.00,,,0.00,weatherlink.com 1.10,2013-02-10 08:26:00,
2013-02-10 03:41:00,37.4,26.0,30.12,ENE,77,0.0,1.0,63,0.00,,,0.00,weatherlink.com 1.10,2013-02-10 08:41:00,
2013-02-10 04:11:00,37.1,26.0,30.12,SSE,154,0.0,1.0,64,0.00,,,0.00,weatherlink.com 1.10,2013-02-10 09:11:00,
2013-02-10 04:26:00,36.8,26.0,30.11,SE,136,0.0,1.0,66,0.00,,,0.00,weatherlink.com 1.10,2013-02-10 09:26:00,
2013-02-10 04:41:00,37.0,26.0,30.11,ENE,63,1.0,2.0,65,0.00,,,0.00,weatherlink.com 1.10,2013-02-10 09:41:00,
2013-02-10 04:56:00,37.2,26.0,30.11,SSE,153,0.0,1.0,65,0.00,,,0.00,weatherlink.com 1.10,2013-02-10 09:56:00,
2013-02-10 05:11:00,37.5,26.0,30.11,SE,145,2.0,2.0,64,0.00,,,0.00,weatherlink.com 1.10,2013-02-10 10:11:00,
2013-02-10 05:27:00,37.6,27.0,30.11,SE,143,0.0,1.0,65,0.00,,,0.00,weatherlink.com 1.10,2013-02-10 10:27:00,
2013-02-10 05:41:00,37.5,27.0,30.11,SSE,155,0.0,1.0,66,0.00,,,0.00,weatherlink.com 1.10,2013-02-10 10:41:00,
2013-02-10 05:57:00,37.5,27.0,30.11,SSE,155,0.0,1.0,67,0.00,,,0.00,weatherlink.com 1.10,2013-02-10 10:57:00,
2013-02-10 06:12:00,37.7,27.0,30.12,WSW,248,0.0,1.0,65,0.00,,,0.00,weatherlink.com 1.10,2013-02-10 11:12:00,
2013-02-10 06:26:00,37.8,30.0,30.12,West,272,0.0,0.0,72,0.00,,,0.00,weatherlink.com 1.10,2013-02-10 11:26:00,
2013-02-10 06:41:00,37.3,31.0,30.12,West,271,0.0,0.0,79,0.01,,,0.01,weatherlink.com 1.10,2013-02-10 11:41:00,
2013-02-10 06:57:00,36.9,32.0,30.12,West,271,0.0,0.0,83,0.01,,,0.01,weatherlink.com 1.10,2013-02-10 11:57:00,
2013-02-10 07:12:00,36.5,33.0,30.12,West,271,0.0,0.0,86,0.02,,,0.02,weatherlink.com 1.10,2013-02-10 12:12:00,
2013-02-10 07:26:00,36.4,33.0,30.12,West,271,0.0,0.0,87,0.03,,,0.03,weatherlink.com 1.10,2013-02-10 12:26:00,
2013-02-10 07:41:00,36.3,33.0,30.11,West,271,0.0,0.0,88,0.02,,,0.03,weatherlink.com 1.10,2013-02-10 12:41:00,
2013-02-10 07:56:00,36.3,33.0,30.10,West,270,0.0,0.0,89,0.03,,,0.04,weatherlink.com 1.10,2013-02-10 12:56:00,
2013-02-10 08:11:00,36.6,34.0,30.09,SSW,194,0.0,1.0,90,0.02,,,0.04,weatherlink.com 1.10,2013-02-10 13:11:00,
2013-02-10 08:26:00,37.1,35.0,30.08,SSE,162,0.0,1.0,91,0.01,,,0.04,weatherlink.com 1.10,2013-02-10 13:26:00,
2013-02-10 08:42:00,37.6,36.0,30.08,SE,146,0.0,1.0,92,0.01,,,0.04,weatherlink.com 1.10,2013-02-10 13:42:00,
2013-02-10 08:59:00,38.4,36.0,30.09,WNW,298,0.0,1.0,92,0.00,,,0.04,weatherlink.com 1.10,2013-02-10 13:59:00,
2013-02-10 09:27:00,38.9,37.0,30.08,WNW,301,0.0,0.0,92,0.00,,,0.04,weatherlink.com 1.10,2013-02-10 14:27:00,
2013-02-10 09:42:00,39.5,37.0,30.08,WNW,301,0.0,0.0,92,0.00,,,0.04,weatherlink.com 1.10,2013-02-10 14:42:00,
2013-02-10 09:57:00,40.4,39.0,30.07,NW,319,0.0,1.0,93,0.00,,,0.04,weatherlink.com 1.10,2013-02-10 14:57:00,
2013-02-10 10:12:00,41.5,39.0,30.08,West,281,0.0,1.0,92,0.00,,,0.04,weatherlink.com 1.10,2013-02-10 15:12:00,
2013-02-10 10:27:00,42.9,40.0,30.05,ESE,117,0.0,1.0,89,0.00,,,0.04,weatherlink.com 1.10,2013-02-10 15:27:00,
2013-02-10 10:42:00,43.9,40.0,30.04,ENE,72,0.0,1.0,86,0.00,,,0.04,weatherlink.com 1.10,2013-02-10 15:42:00,
2013-02-10 10:57:00,45.6,39.0,30.02,SSE,162,1.0,4.0,79,0.00,,,0.04,weatherlink.com 1.10,2013-02-10 15:57:00,
2013-02-10 11:12:00,47.5,39.0,30.02,SSE,153,1.0,7.0,71,0.00,,,0.04,weatherlink.com 1.10,2013-02-10 16:12:00,
2013-02-10 11:27:00,48.8,39.0,30.01,East,84,1.0,3.0,69,0.00,,,0.04,weatherlink.com 1.10,2013-02-10 16:27:00,
2013-02-10 11:42:00,50.0,39.0,30.00,SSE,166,1.0,4.0,66,0.00,,,0.04,weatherlink.com 1.10,2013-02-10 16:42:00,
2013-02-10 11:57:00,51.8,39.0,29.99,SSW,207,2.0,4.0,61,0.00,,,0.04,weatherlink.com 1.10,2013-02-10 16:57:00,
2013-02-10 12:12:00,53.8,38.0,29.98,South,181,6.0,11.0,56,0.00,,,0.00,weatherlink.com 1.10,2013-02-10 17:12:00,
2013-02-10 12:27:00,55.4,38.0,29.95,SSE,160,7.0,10.0,52,0.00,,,0.00,weatherlink.com 1.10,2013-02-10 17:27:00,
2013-02-10 12:42:00,56.5,37.0,29.93,SSE,167,1.0,14.0,49,0.00,,,0.00,weatherlink.com 1.10,2013-02-10 17:42:00,
2013-02-10 12:57:00,56.9,37.0,29.91,South,188,7.0,12.0,47,0.00,,,0.00,weatherlink.com 1.10,2013-02-10 17:57:00,
2013-02-10 13:12:00,57.3,36.0,29.91,South,184,5.0,10.0,46,0.00,,,0.00,weatherlink.com 1.10,2013-02-10 18:12:00,
2013-02-10 13:27:00,57.2,36.0,29.89,WSW,242,4.0,17.0,46,0.00,,,0.00,weatherlink.com 1.10,2013-02-10 18:27:00,
2013-02-10 13:42:00,57.4,37.0,29.89,WNW,285,0.0,11.0,46,0.00,,,0.00,weatherlink.com 1.10,2013-02-10 18:42:00,
2013-02-10 13:58:00,57.6,37.0,29.91,SSE,159,0.0,8.0,46,0.00,,,0.00,weatherlink.com 1.10,2013-02-10 18:58:00,
2013-02-10 14:12:00,57.7,37.0,29.90,West,266,2.0,7.0,46,0.00,,,0.00,weatherlink.com 1.10,2013-02-10 19:12:00,
2013-02-10 14:27:00,57.9,38.0,29.92,WSW,245,1.0,5.0,47,0.00,,,0.00,weatherlink.com 1.10,2013-02-10 19:27:00,
2013-02-10 14:42:00,57.7,40.0,29.93,West,266,4.0,12.0,53,0.01,,,0.01,weatherlink.com 1.10,2013-02-10 19:42:00,
2013-02-10 14:58:00,53.5,45.0,29.94,SW,215,9.0,16.0,73,0.04,,,0.04,weatherlink.com 1.10,2013-02-10 19:58:00,
2013-02-10 15:13:00,51.4,45.0,29.93,SSW,211,2.0,7.0,80,0.09,,,0.09,weatherlink.com 1.10,2013-02-10 20:13:00,
2013-02-10 15:28:00,50.8,46.0,29.92,SSW,211,0.0,4.0,84,0.11,,,0.11,weatherlink.com 1.10,2013-02-10 20:28:00,
2013-02-10 15:43:00,50.4,46.0,29.89,SSE,166,0.0,3.0,86,0.12,,,0.13,weatherlink.com 1.10,2013-02-10 20:43:00,
2013-02-10 15:58:00,50.0,46.0,29.87,West,278,11.0,12.0,87,0.09,,,0.14,weatherlink.com 1.10,2013-02-10 20:58:00,
2013-02-10 16:13:00,50.0,46.0,29.84,West,266,2.0,9.0,87,0.06,,,0.15,weatherlink.com 1.10,2013-02-10 21:13:00,
2013-02-10 16:29:00,50.0,46.0,29.83,SE,143,2.0,17.0,87,0.04,,,0.15,weatherlink.com 1.10,2013-02-10 21:29:00,
2013-02-10 16:43:00,50.1,46.0,29.81,SE,137,9.0,12.0,87,0.02,,,0.15,weatherlink.com 1.10,2013-02-10 21:43:00,
2013-02-10 16:58:00,50.3,46.0,29.80,SW,219,6.0,20.0,86,0.01,,,0.15,weatherlink.com 1.10,2013-02-10 21:58:00,
2013-02-10 17:13:00,50.5,46.0,29.84,West,264,1.0,10.0,85,0.00,,,0.15,weatherlink.com 1.10,2013-02-10 22:13:00,
2013-02-10 17:28:00,50.6,46.0,29.85,West,260,6.0,14.0,85,0.00,,,0.15,weatherlink.com 1.10,2013-02-10 22:28:00,
2013-02-10 17:43:00,50.8,47.0,29.84,SW,219,8.0,13.0,85,0.00,,,0.15,weatherlink.com 1.10,2013-02-10 22:43:00,
2013-02-10 17:58:00,51.1,46.0,29.84,SSE,155,2.0,15.0,84,0.00,,,0.15,weatherlink.com 1.10,2013-02-10 22:58:00,
2013-02-10 18:13:00,51.3,47.0,29.84,West,263,9.0,10.0,84,0.00,,,0.15,weatherlink.com 1.10,2013-02-10 23:13:00,
2013-02-10 18:28:00,51.4,47.0,29.82,WNW,290,1.0,14.0,84,0.00,,,0.15,weatherlink.com 1.10,2013-02-10 23:28:00,
2013-02-10 18:43:00,51.6,47.0,29.82,West,262,2.0,11.0,84,0.00,,,0.15,weatherlink.com 1.10,2013-02-10 23:43:00,
2013-02-10 18:58:00,51.8,47.0,29.82,NNW,338,1.0,20.0,83,0.00,,,0.15,weatherlink.com 1.10,2013-02-10 23:58:00,
2013-02-10 19:13:00,51.8,47.0,29.81,SSE,153,2.0,14.0,84,0.00,,,0.15,weatherlink.com 1.10,2013-02-11 00:13:00,
2013-02-10 19:28:00,52.0,47.0,29.80,SW,214,4.0,16.0,84,0.00,,,0.15,weatherlink.com 1.10,2013-02-11 00:28:00,
2013-02-10 19:43:00,52.2,48.0,29.80,NNW,338,2.0,16.0,84,0.00,,,0.15,weatherlink.com 1.10,2013-02-11 00:43:00,
2013-02-10 19:58:00,52.5,48.0,29.80,ESE,115,5.0,13.0,83,0.00,,,0.15,weatherlink.com 1.10,2013-02-11 00:58:00,
2013-02-10 20:13:00,52.8,48.0,29.80,SW,232,3.0,14.0,83,0.00,,,0.15,weatherlink.com 1.10,2013-02-11 01:13:00,
2013-02-10 20:28:00,53.0,48.0,29.80,SW,215,8.0,12.0,83,0.00,,,0.15,weatherlink.com 1.10,2013-02-11 01:28:00,
2013-02-10 20:43:00,53.3,48.0,29.80,WSW,246,1.0,11.0,82,0.00,,,0.15,weatherlink.com 1.10,2013-02-11 01:43:00,
2013-02-10 20:58:00,53.4,48.0,29.80,SSW,212,2.0,10.0,83,0.00,,,0.15,weatherlink.com 1.10,2013-02-11 01:58:00,
2013-02-10 21:13:00,53.4,48.0,29.80,West,265,3.0,10.0,83,0.00,,,0.15,weatherlink.com 1.10,2013-02-11 02:13:00,
2013-02-10 21:28:00,53.5,49.0,29.80,WSW,256,7.0,15.0,83,0.00,,,0.15,weatherlink.com 1.10,2013-02-11 02:28:00,
2013-02-10 21:43:00,53.4,48.0,29.80,South,172,7.0,10.0,83,0.00,,,0.15,weatherlink.com 1.10,2013-02-11 02:43:00,
2013-02-10 21:58:00,53.3,49.0,29.79,SW,225,4.0,13.0,84,0.00,,,0.15,weatherlink.com 1.10,2013-02-11 02:58:00,
2013-02-10 22:13:00,53.4,49.0,29.79,SSW,203,3.0,11.0,85,0.00,,,0.15,weatherlink.com 1.10,2013-02-11 03:13:00,
2013-02-10 22:28:00,53.2,49.0,29.79,WSW,239,6.0,13.0,86,0.00,,,0.15,weatherlink.com 1.10,2013-02-11 03:28:00,
2013-02-10 22:43:00,53.2,50.0,29.80,WNW,283,4.0,12.0,87,0.00,,,0.15,weatherlink.com 1.10,2013-02-11 03:43:00,
2013-02-10 22:58:00,53.3,50.0,29.79,WSW,249,8.0,16.0,88,0.00,,,0.15,weatherlink.com 1.10,2013-02-11 03:58:00,
2013-02-10 23:13:00,53.4,50.0,29.80,WSW,244,1.0,9.0,88,0.00,,,0.15,weatherlink.com 1.10,2013-02-11 04:13:00,
2013-02-10 23:29:00,53.2,50.0,29.81,West,277,0.0,10.0,90,0.00,,,0.15,weatherlink.com 1.10,2013-02-11 04:29:00,
2013-02-10 23:44:00,53.2,50.0,29.80,WNW,293,7.0,11.0,90,0.00,,,0.15,weatherlink.com 1.10,2013-02-11 04:44:00,
2013-02-10 23:58:00,53.4,51.0,29.79,SSW,208,2.0,7.0,90,0.00,,,0.15,weatherlink.com 1.10,2013-02-11 04:58:00,